TimeCDT,TemperatureF,Dew PointF,Humidity,Sea Level PressureIn,VisibilityMPH,Wind Direction,Wind SpeedMPH,Gust SpeedMPH,PrecipitationIn,Events,Conditions,WindDirDegrees,DateUTC
12:53 AM,55.9,50.0,80,30.03,10.0,Calm,Calm,-,N/A,,Clear,0,2013-03-17 05:53:00
1:53 AM,54.0,50.0,86,30.02,10.0,Calm,Calm,-,N/A,,Clear,0,2013-03-17 06:53:00
2:53 AM,51.1,48.9,92,30.01,8.0,Calm,Calm,-,N/A,,Clear,0,2013-03-17 07:53:00
3:50 AM,50.0,46.4,87,30.00,5.0,Calm,Calm,-,N/A,,Scattered Clouds,0,2013-03-17 08:50:00
3:53 AM,50.0,46.9,89,29.99,5.0,Calm,Calm,-,N/A,,Scattered Clouds,0,2013-03-17 08:53:00
3:56 AM,48.2,46.4,93,30.00,2.0,Calm,Calm,-,N/A,,Mostly Cloudy,0,2013-03-17 08:56:00
4:03 AM,48.2,46.4,93,30.00,1.8,Calm,Calm,-,N/A,,Mostly Cloudy,0,2013-03-17 09:03:00
4:06 AM,50.0,46.4,87,30.00,4.0,Calm,Calm,-,N/A,,Mostly Cloudy,0,2013-03-17 09:06:00
4:16 AM,48.2,46.4,93,30.00,1.0,Calm,Calm,-,N/A,,Mist,0,2013-03-17 09:16:00
4:23 AM,48.2,46.4,93,30.00,0.2,Calm,Calm,-,N/A,Fog,Fog,0,2013-03-17 09:23:00
4:53 AM,46.9,46.0,97,30.00,0.2,Calm,Calm,-,N/A,Fog,Fog,0,2013-03-17 09:53:00
5:29 AM,48.2,46.4,93,30.01,0.2,Calm,Calm,-,N/A,Fog,Fog,0,2013-03-17 10:29:00
5:53 AM,48.9,48.0,97,30.02,0.2,Calm,Calm,-,N/A,Fog,Fog,0,2013-03-17 10:53:00
6:07 AM,50.0,48.2,94,30.02,0.2,Calm,Calm,-,N/A,Fog,Fog,0,2013-03-17 11:07:00
6:53 AM,51.1,50.0,96,30.03,0.2,Calm,Calm,-,N/A,Fog,Fog,0,2013-03-17 11:53:00
7:53 AM,52.0,52.0,100,30.05,0.2,Calm,Calm,-,N/A,Fog,Fog,0,2013-03-17 12:53:00
8:53 AM,55.0,54.0,96,30.05,0.5,Calm,Calm,-,N/A,Fog,Fog,0,2013-03-17 13:53:00
8:57 AM,55.4,53.6,94,30.06,1.0,Calm,Calm,-,N/A,,Mostly Cloudy,0,2013-03-17 13:57:00
8:59 AM,55.4,53.6,94,30.06,1.5,Calm,Calm,-,N/A,,Mostly Cloudy,0,2013-03-17 13:59:00
9:01 AM,55.4,53.6,94,30.06,2.0,Calm,Calm,-,N/A,,Mostly Cloudy,0,2013-03-17 14:01:00
9:09 AM,55.4,55.4,100,30.06,3.0,Calm,Calm,-,N/A,,Scattered Clouds,0,2013-03-17 14:09:00
9:53 AM,57.9,55.0,90,30.05,9.0,Calm,Calm,-,N/A,,Partly Cloudy,0,2013-03-17 14:53:00
10:53 AM,64.0,57.0,78,30.04,10.0,Calm,Calm,-,N/A,,Clear,0,2013-03-17 15:53:00
11:53 AM,66.9,54.0,63,30.04,10.0,WSW,4.6,-,N/A,,Scattered Clouds,240,2013-03-17 16:53:00
12:53 PM,69.1,54.0,58,30.02,10.0,South,8.1,-,N/A,,Partly Cloudy,190,2013-03-17 17:53:00
1:53 PM,70.0,54.0,57,29.98,10.0,SSW,9.2,-,N/A,,Scattered Clouds,200,2013-03-17 18:53:00
2:53 PM,70.0,54.0,57,29.96,10.0,South,9.2,-,N/A,,Partly Cloudy,190,2013-03-17 19:53:00
3:53 PM,68.0,55.0,63,29.96,10.0,South,5.8,-,N/A,,Mostly Cloudy,180,2013-03-17 20:53:00
4:53 PM,69.1,57.0,65,29.95,10.0,South,6.9,-,N/A,,Partly Cloudy,180,2013-03-17 21:53:00
5:53 PM,68.0,57.9,70,29.94,10.0,SSE,5.8,-,N/A,,Clear,160,2013-03-17 22:53:00
6:53 PM,66.0,57.9,75,29.95,10.0,SSE,5.8,-,N/A,,Clear,160,2013-03-17 23:53:00
7:53 PM,64.9,57.9,78,29.94,10.0,SSE,6.9,-,N/A,,Clear,160,2013-03-18 00:53:00
8:53 PM,63.0,59.0,87,29.95,10.0,South,6.9,-,N/A,,Partly Cloudy,180,2013-03-18 01:53:00
9:53 PM,62.1,59.0,90,29.96,9.0,SSE,8.1,-,N/A,,Partly Cloudy,160,2013-03-18 02:53:00
10:10 PM,62.6,59.0,88,29.96,9.0,SSE,4.6,-,N/A,,Mostly Cloudy,160,2013-03-18 03:10:00
10:48 PM,60.8,57.2,88,29.96,10.0,South,5.8,-,N/A,,Mostly Cloudy,170,2013-03-18 03:48:00
10:53 PM,60.1,57.9,93,29.95,9.0,SSE,4.6,-,N/A,,Mostly Cloudy,160,2013-03-18 03:53:00
11:53 PM,60.1,57.0,90,29.96,10.0,South,5.8,-,N/A,,Overcast,170,2013-03-18 04:53:00